[[{"header":{"parameterUnit":"m.s-1","parameterCategory":1,"la1":30.2991,"la2":30.254,"lo1":-89.0895,"lo2":-89.0444,"dy":0.0017,"dx":0.0017,"nx":28,"ny":28,"refTime":"2024-05-07T03:00:00:Z","depth":0,"parameterNumber":2,"parameterNumberName":"U-component_of_WINDS"},"data":[0,0,0,0,0,0,0,0,0,0,0,0,0,0,0,0,0,0,0,0,0,0,0,0,0,0,0,0,0,0,0,0,0,0,0,0,0,0,0,0,0,0,0,0,0,0,0,0,0,0,0,0,0,0,0,0,0,0,-1.6494,-1.6495,0,-1.6604,-1.6605,-1.6606,-1.6633,-1.6632,-1.6631,-1.663,-1.6744,-1.6748,-1.6752,0,0,0,0,0,0,0,0,0,0,0,0,0,-1.6307,-1.6311,-1.6494,-1.6495,-1.6496,-1.6604,-1.6605,-1.6607,-1.6633,-1.6632,-1.6631,-1.663,-1.6743,-1.6748,-1.6752,0,0,0,0,0,0,0,0,0,0,0,0,0,-1.64,-1.6312,-1.6493,-1.6522,-1.6526,-1.6603,-1.6605,-1.6607,-1.6633,-1.6632,-1.6631,-1.663,-1.6742,-1.6747,-1.6753,-1.6809,0,0,-1.677,-1.6772,0,0,0,0,0,0,0,0,-1.6395,-1.6407,-1.6517,-1.652,-1.6525,-1.6603,-1.6581,-1.6675,-1.6633,-1.6592,-1.663,-1.6629,-1.6698,-1.6707,-1.6731,-1.6815,-1.682,-1.677,-1.6774,-1.6776,-1.6778,0,0,0,0,0,0,0,-1.6388,-1.6402,-1.6537,-1.6518,-1.6523,-1.653,-1.6542,-1.6599,-1.665,-1.6596,-1.6598,-1.6611,-1.67,-1.6725,-1.6734,-1.6821,-1.677,-1.6775,-1.6778,-1.6781,-1.6958,-1.696,0,0,0,0,0,0,-1.6377,-1.6397,-1.6534,-1.6541,-1.6456,-1.6535,-1.6548,-1.6579,-1.665,-1.6659,-1.6611,-1.6611,-1.6716,-1.6727,-1.6738,-1.6809,-1.6776,-1.6781,-1.6784,-1.6957,-1.6959,-1.696,0,0,0,0,0,0,-1.6372,-1.6389,-1.6529,-1.6469,-1.6488,-1.6539,-1.6574,-1.6582,-1.6607,-1.6662,-1.6671,-1.6627,-1.6716,-1.673,-1.6792,-1.6813,-1.6784,-1.6789,-1.6955,-1.6958,-1.6959,-1.6952,0,0,0,0,0,0,-1.6367,-1.6387,-1.6408,-1.647,-1.6491,-1.6581,-1.6575,-1.6585,-1.6616,-1.6617,-1.6679,-1.6688,-1.6716,-1.6783,-1.6797,-1.682,-1.6793,-1.6954,-1.6956,-1.6959,-1.695,-1.6953,-1.6956,0,0,0,0,0,-1.636,-1.6402,-1.6409,-1.6426,-1.6519,-1.6582,-1.6594,-1.6625,-1.6618,-1.664,-1.6676,-1.6686,-1.6809,-1.6789,-1.6805,-1.6831,-1.6952,-1.6956,-1.6959,-1.6949,-1.6953,-1.6956,0,0,0,0,0,0,-1.6343,-1.6411,-1.6419,-1.6482,-1.6526,-1.6586,-1.6615,-1.6628,-1.6675,-1.6674,-1.6711,-1.6725,-1.6784,-1.6814,-1.679,-1.689,-1.6881,-1.6887,-1.6868,-1.6872,-1.6875,-1.6866,-1.6798,0,0,0,0,0,-1.6346,-1.6391,-1.6448,-1.6498,-1.652,-1.6564,-1.6592,-1.6613,-1.666,-1.6678,-1.6718,-1.6764,-1.6813,-1.6844,-1.6892,-1.6955,-1.6969,-1.6981,-1.6983,-1.6985,-1.699,-1.7026,-1.7032,-1.697,-1.697,-1.697,0,0,-1.6353,-1.6396,-1.6422,-1.6496,-1.6532,-1.6578,-1.6579,-1.6628,-1.6663,-1.6686,-1.6746,-1.6777,-1.6831,-1.6893,-1.6923,-1.692,-1.7011,-1.6989,-1.6991,-1.6995,-1.703,-1.7036,-1.7041,-1.6972,-1.6972,-1.6972,0,0,-1.639,-1.6427,-1.6473,-1.6509,-1.6564,-1.6594,-1.6605,-1.6663,-1.6685,-1.6746,-1.6764,-1.6807,-1.689,-1.6927,-1.6957,-1.701,-1.7021,-1.7024,-1.7039,-1.7073,-1.7078,-1.7082,-1.7101,-1.7107,-1.7029,-1.7029,-1.7029,0,-1.6393,-1.6463,-1.6495,-1.6543,-1.6575,-1.6598,-1.6645,-1.6679,-1.6747,-1.6769,-1.6764,-1.687,-1.6907,-1.6979,-1.6992,-1.7015,-1.7029,-1.7017,-1.7075,-1.7079,-1.7084,-1.7102,-1.7109,-1.7029,-1.7029,-1.7029,-1.7029,0,-1.6463,-1.6512,-1.6542,-1.6607,-1.6642,-1.669,-1.6729,-1.6762,-1.6779,-1.6809,-1.6871,-1.6917,-1.6975,-1.6994,-1.7011,-1.7069,-1.7065,-1.7067,-1.7059,-1.7089,-1.7107,-1.7114,-1.7029,-1.7029,-1.7029,-1.7029,0,0,-1.6491,-1.6574,-1.6584,-1.6614,-1.6677,-1.6715,-1.6764,-1.682,-1.6847,-1.6894,-1.6936,-1.7006,-1.7009,-1.7043,-1.7065,-1.7095,-1.7134,-1.7094,-1.7096,-1.7099,-1.7199,-1.7197,-1.7204,-1.7142,-1.7143,-1.7144,-1.7195,0,-1.6536,-1.6623,-1.6654,-1.6726,-1.6771,-1.6794,-1.6837,-1.688,-1.691,-1.6953,-1.6986,-1.7035,-1.7035,-1.7055,-1.7086,-1.7122,-1.7154,-1.7119,-1.7181,-1.7183,-1.7166,-1.7214,-1.7211,-1.7256,-1.7202,-1.7203,-1.7204,0,-1.66,-1.6647,-1.6723,-1.6781,-1.6801,-1.6838,-1.6893,-1.6934,-1.6984,-1.7003,-1.7041,-1.7061,-1.7114,-1.7102,-1.7175,-1.7151,-1.7178,-1.7199,-1.7202,-1.7209,-1.7195,-1.7221,-1.7272,-1.7278,-1.7215,-1.7214,-1.7213,0,-1.6612,-1.6695,-1.6751,-1.6776,-1.6845,-1.6871,-1.6901,-1.695,-1.6982,-1.7029,-1.7051,-1.7104,-1.7133,-1.7174,-1.7208,-1.7197,-1.7278,-1.7269,-1.7295,-1.7295,-1.7311,-1.7309,-1.7366,-1.7329,-1.7329,-1.7329,-1.7329,0,-1.6659,-1.6705,-1.6758,-1.6793,-1.6845,-1.6881,-1.6931,-1.6963,-1.7006,-1.7048,-1.7071,-1.711,-1.7153,-1.7197,-1.7224,-1.728,-1.7293,-1.731,-1.7317,-1.7308,-1.7306,-1.7326,-1.7324,-1.7331,-1.733,-1.733,-1.733,0,-1.6682,-1.6719,-1.6782,-1.6842,-1.6858,-1.6894,-1.6946,-1.6981,-1.7011,-1.7064,-1.7078,-1.7126,-1.7179,-1.7218,-1.7286,-1.7305,-1.7365,-1.7372,-1.7348,-1.7351,-1.7375,-1.7372,-1.7446,-1.7458,-1.7413,-1.7414,-1.7414,0,-1.6709,-1.6744,-1.6808,-1.6837,-1.6867,-1.6914,-1.6947,-1.6984,-1.7017,-1.7077,-1.7105,-1.716,-1.7205,-1.729,-1.7331,-1.7384,-1.7392,-1.7414,-1.74,-1.739,-1.7392,-1.7389,-1.7393,-1.7416,-1.7416,-1.7417,-1.7417,0,-1.6753,-1.6769,-1.6816,-1.6869,-1.6907,-1.6951,-1.6995,-1.7018,-1.7062,-1.7098,-1.7153,-1.7189,-1.7259,-1.7313,-1.737,-1.7402,-1.7417,-1.7421,-1.743,-1.7421,-1.7406,-1.7414,-1.7353,-1.7419,-1.7419,-1.7419,-1.7419,-1.7419,-1.6778,-1.6811,-1.6861,-1.6912,-1.6949,-1.699,-1.7025,-1.7061,-1.7107,-1.7167,-1.7186,-1.7242,-1.7292,-1.737,-1.7402,-1.7447,-1.7446,-1.7459,-1.7462,-1.7464,-1.7464,-1.7399,-1.7458,-1.7458,-1.7458,-1.7458,-1.7458,0,-1.6823,-1.6857,-1.6903,-1.6964,-1.7004,-1.7015,-1.7064,-1.7097,-1.7147,-1.7191,-1.7236,-1.7299,-1.7352,-1.7398,-1.7453,-1.748,-1.7488,-1.7493,-1.7491,-1.7498,-1.7462,-1.7449,-1.7485,-1.7485,-1.7485,-1.7485,-1.7485,-1.7485,-1.6852,-1.6908,-1.6931,-1.7006,-1.7039,-1.7095,-1.7122,-1.716,-1.7196,-1.7265,-1.7309,-1.7338,-1.7384,-1.7442,-1.7491,-1.7503,-1.7522,-1.7525,-1.7539,-1.7504,-1.7501,-1.7498,-1.7485,-1.7529,-1.7529,-1.7572,-1.7572,-1.7572]},{"header":{"parameterUnit":"m.s-1","parameterCategory":1,"la1":30.2991,"la2":30.254,"lo1":-89.0895,"lo2":-89.0444,"dy":0.0017,"dx":0.0017,"nx":28,"ny":28,"refTime":"2024-05-07T03:00:00:Z","depth":0,"parameterNumber":3,"parameterNumberName":"V-component_of_WINDS"},"data":[0,0,0,0,0,0,0,0,0,0,0,0,0,0,0,0,0,0,0,0,0,0,0,0,0,0,0,0,0,0,0,0,0,0,0,0,0,0,0,0,0,0,0,0,0,0,0,0,0,0,0,0,0,0,0,0,0,0,4.9691,4.9692,0,4.977,4.9771,4.9772,4.9743,4.9742,4.974,4.9738,4.9816,4.9819,4.9823,0,0,0,0,0,0,0,0,0,0,0,0,0,4.9514,4.9517,4.9691,4.9692,4.9693,4.977,4.9771,4.9772,4.9744,4.9742,4.9739,4.9737,4.9815,4.9819,4.9823,0,0,0,0,0,0,0,0,0,0,0,0,0,4.9591,4.9518,4.9691,4.9689,4.9689,4.977,4.9771,4.9772,4.9744,4.9741,4.9739,4.9736,4.9813,4.9818,4.9824,4.9911,0,0,4.9841,4.9843,0,0,0,0,0,0,0,0,4.9587,4.9598,4.9688,4.9689,4.969,4.9744,4.9737,4.9819,4.9745,4.9723,4.9738,4.9735,4.9794,4.9801,4.9821,4.9915,4.9918,4.9841,4.9845,4.9847,4.9849,0,0,0,0,0,0,0,4.9582,4.9594,4.9722,4.9689,4.969,4.9682,4.969,4.9752,4.9772,4.9725,4.9723,4.9733,4.9794,4.9816,4.9823,4.9919,4.9841,4.9846,4.985,4.9852,5.0088,5.009,0,0,0,0,0,0,4.9576,4.959,4.972,4.9725,4.9631,4.9688,4.9697,4.9729,4.9771,4.9775,4.9735,4.9731,4.9808,4.9816,4.9825,4.993,4.9847,4.9852,4.9855,5.0085,5.0088,5.0091,0,0,0,0,0,0,4.9573,4.9588,4.9717,4.9657,4.9673,4.9694,4.973,4.9732,4.9754,4.9779,4.9782,4.9754,4.9806,4.9818,4.989,4.9932,4.9855,4.986,5.0081,5.0086,5.009,5.014,0,0,0,0,0,0,4.9568,4.9587,4.9621,4.9658,4.9676,4.9781,4.9733,4.9736,4.9764,4.976,4.9798,4.9802,4.9805,4.9882,4.9896,4.9939,4.9864,5.0077,5.0083,5.0088,5.0135,5.0145,5.0155,0,0,0,0,0,4.9561,4.9631,4.9623,4.9639,4.9719,4.9783,4.9794,4.9797,4.9768,4.9802,4.9818,4.9801,4.9926,4.989,4.9905,4.995,5.0075,5.0082,5.0088,5.013,5.0143,5.0155,0,0,0,0,0,0,4.9597,4.9636,4.9627,4.9711,4.9744,4.9778,4.9821,4.9811,4.9852,4.9846,4.9847,4.9856,4.9931,4.9947,4.9907,5.0036,4.9996,5.0006,5.0023,5.0035,5.0045,5.0039,4.9869,0,0,0,0,0,4.9615,4.9665,4.9696,4.9767,4.9784,4.98,4.9828,4.9828,4.9862,4.9875,4.9897,4.9929,4.9976,5.0007,5.0051,5.0137,5.0145,5.0176,5.0186,5.0194,5.0202,5.0249,5.0263,5.0113,5.0113,5.0113,0,0,4.9652,4.968,4.9711,4.9775,4.9801,4.9852,4.9812,4.9867,4.9905,4.9883,4.9953,4.997,5.0007,5.0087,5.0123,5.0103,5.0246,5.0202,5.0209,5.0213,5.0257,5.0272,5.0284,5.0118,5.0117,5.0116,0,0,4.9746,4.9772,4.9834,4.9861,4.9901,4.9911,4.9926,4.9962,4.9973,5.0043,5.0028,5.0072,5.0153,5.018,5.0204,5.0308,5.0294,5.0323,5.0375,5.0421,5.0433,5.0443,5.048,5.0494,5.0331,5.0331,5.0331,0,4.9787,4.9864,4.9867,4.9924,4.9953,4.9937,4.9999,5.0025,5.0077,5.0096,5.0074,5.0175,5.0198,5.0284,5.031,5.033,5.0347,5.0318,5.0431,5.0442,5.0451,5.0487,5.0501,5.0335,5.0334,5.0334,5.0334,0,4.9912,4.9965,5.0011,5.0062,5.0096,5.0155,5.0167,5.02,5.0197,5.0209,5.0281,5.0309,5.0359,5.0379,5.0377,5.0465,5.0452,5.043,5.0389,5.0469,5.0502,5.0516,5.0339,5.0338,5.0337,5.0336,0,0,5.003,5.0083,5.01,5.0123,5.0166,5.0207,5.0265,5.0315,5.0344,5.038,5.0429,5.0498,5.0478,5.0506,5.0506,5.0546,5.0627,5.052,5.0521,5.0538,5.0726,5.0742,5.0757,5.0618,5.0621,5.0623,5.0723,0,5.0126,5.023,5.0235,5.0329,5.0378,5.0364,5.0415,5.0447,5.046,5.0503,5.0517,5.0566,5.0537,5.0554,5.0593,5.0609,5.0665,5.0602,5.0663,5.0665,5.0654,5.0775,5.0791,5.0885,5.0736,5.0738,5.074,0,5.0253,5.0295,5.0394,5.043,5.0451,5.0497,5.0543,5.0585,5.062,5.0626,5.0658,5.0652,5.0712,5.067,5.0751,5.0708,5.0734,5.0746,5.0749,5.0755,5.0707,5.0783,5.0914,5.0928,5.076,5.0759,5.0757,0,5.0329,5.0409,5.0479,5.05,5.0544,5.0576,5.0596,5.0629,5.0658,5.0698,5.0718,5.0764,5.0789,5.0825,5.0832,5.0801,5.0914,5.0872,5.0921,5.092,5.0944,5.0943,5.1081,5.0962,5.0961,5.0961,5.0961,0,5.0436,5.0497,5.0514,5.0557,5.0625,5.0629,5.0696,5.0714,5.0743,5.0789,5.0779,5.0822,5.0829,5.0873,5.0879,5.0946,5.0957,5.0964,5.0965,5.0965,5.0964,5.0981,5.0975,5.0965,5.0964,5.0963,5.0963,0,5.0532,5.0545,5.0621,5.0657,5.0667,5.0715,5.0746,5.0787,5.0799,5.0857,5.0871,5.089,5.0942,5.0952,5.1014,5.1017,5.1097,5.1091,5.1085,5.1084,5.1132,5.1128,5.1286,5.1307,5.1174,5.1176,5.1177,0,5.0599,5.0646,5.0687,5.0718,5.0739,5.0788,5.0818,5.0825,5.0857,5.0901,5.0937,5.0987,5.1028,5.1112,5.1131,5.1178,5.1173,5.1226,5.118,5.1179,5.1174,5.1171,5.1175,5.1234,5.1236,5.1237,5.1238,0,5.0717,5.0722,5.0767,5.0814,5.0851,5.0889,5.0924,5.0949,5.096,5.0997,5.105,5.1082,5.1145,5.1196,5.1243,5.1262,5.1252,5.1252,5.1266,5.1266,5.126,5.1264,5.1109,5.1248,5.1247,5.1246,5.1246,5.1245,5.0801,5.0842,5.0877,5.0928,5.0955,5.0989,5.1029,5.1047,5.1092,5.1144,5.1145,5.1203,5.1237,5.13,5.1322,5.1368,5.1351,5.1371,5.1376,5.1381,5.1385,5.1254,5.1376,5.1376,5.1376,5.1375,5.1375,0,5.0918,5.0941,5.0987,5.1037,5.1077,5.1065,5.1103,5.1137,5.1189,5.1222,5.1263,5.1324,5.1373,5.1397,5.1445,5.1477,5.1474,5.149,5.1487,5.1492,5.1397,5.138,5.1492,5.1492,5.1492,5.1492,5.1492,5.1492,5.0984,5.1053,5.1062,5.1144,5.1166,5.1223,5.1246,5.1277,5.1304,5.1373,5.1414,5.1429,5.1459,5.1509,5.1554,5.156,5.1578,5.1596,5.16,5.151,5.1498,5.1487,5.1471,5.16,5.16,5.1691,5.1691,5.1692]}]]